This demonstration page uses our WeatherBlox Daily Observations layout. Learn more.

Left ArrowRight Arrow

Hourly Observations for September 2, 2015

Temp ( °F °C ) Dew Point ( °F °C ) Humidity (%) Winds ( mph kmh ) Pressure ( in mb ) Visibility ( mi km ) Precip ( " mm )
12:53 am 00:53 Clear 79 26.1 45 7.2 30 30 WSW 8 13 29.78 1009 10 16 0.00 0.00
1:53 am 01:53 Clear 74 23.3 46 7.8 37 37 Calm 29.79 1009 10 16 0.00 0.00
2:53 am 02:53 Clear 73 22.8 49 9.4 43 43 S 5 7 29.80 1009 10 16 0.00 0.00
3:53 am 03:53 Clear 71 21.7 53 11.7 53 53 SSE 9 15 29.81 1010 10 16 0.00 0.00
4:53 am 04:53 Clear 68 20 53 11.7 59 59 Calm 29.83 1010 10 16 0.00 0.00
5:53 am 05:53 Clear 68 20 53 11.7 59 59 S 8 13 29.84 1011 10 16 0.00 0.00
6:53 am 06:53 Sunny 66 18.9 53 11.7 63 63 Calm 29.85 1011 10 16 0.00 0.00
7:53 am 07:53 Sunny 66 18.9 52 11.1 61 61 Calm 29.87 1011 10 16 0.00 0.00
8:53 am 08:53 Sunny 69 20.6 53 11.7 57 57 Calm 29.87 1011 10 16 0.00 0.00
9:53 am 09:53 Sunny 73 22.8 54 12.2 51 51 SW 6 9 29.86 1011 10 16 0.00 0.00
10:53 am 10:53 Sunny 76 24.4 53 11.7 45 45 SSE 5 7 29.85 1011 10 16 0.00 0.00
11:53 am 11:53 Sunny 80 26.7 52 11.1 38 38 SSW 9 15 29.84 1010 10 16 0.00 0.00
12:53 pm 12:53 Sunny 83 28.3 52 11.1 34 34 SSE 9 15 29.81 1009 10 16 0.00 0.00
1:53 pm 13:53 Sunny 85 29.4 51 10.6 31 31 SSE 12 19 29.79 1009 10 16 0.00 0.00
2:53 pm 14:53 Sunny 88 31.1 50 10 27 27 SSE 15 24 29.76 1008 10 16 0.00 0.00
3:53 pm 15:53 Sunny 89 31.7 46 7.8 23 23 SSE 18 30 29.74 1007 10 16 0.00 0.00
4:53 pm 16:53 Sunny 89 31.7 49 9.4 25 25 S 14 22 29.72 1007 10 16 0.00 0.00
5:53 pm 17:53 Mostly Sunny 87 30.6 53 11.7 31 31 S 14 22 29.72 1006 10 16 0.00 0.00
6:53 pm 18:53 Sunny 84 28.9 55 12.8 37 37 S 13 20 29.72 1006 10 16 0.00 0.00
7:53 pm 19:53 Clear 81 27.2 55 12.8 41 41 S 10 17 29.72 1007 10 16 0.00 0.00
8:53 pm 20:53 Partly Cloudy 81 27.2 50 10 34 34 S 13 20 29.75 1007 10 16 0.00 0.00
9:53 pm 21:53 Clear 79 26.1 44 6.7 29 29 NW 3 6 29.77 1008 10 16 0.00 0.00
10:53 pm 22:53 Clear 77 25 42 5.6 29 29 SSW 5 7 29.77 1008 10 16 0.00 0.00
11:53 pm 23:53 Mostly Clear 75 23.9 42 5.6 31 31 SW 3 6 29.78 1008 10 16 0.00 0.00

Powered by AerisWeather